Regional Weather Roundup
Issued by NWS

Home | Current Version | Previous Version | Graphics & Text | Print | Product List | Glossary Off
Versions: 1 2 3 4 5 6 7 8 9 10 11 12 13 14 15 16 17 18 19 20 21 22 23 24 25 26 27 28 29 30 31 32 33 34 35 36 37 38 39 40 41 42 43 44 45 46 47 48 49 50

000
ASUS43 KMKX 231621
RWRWI

WISCONSIN REGIONAL WEATHER ROUNDUP
NATIONAL WEATHER SERVICE MILWAUKEE/SULLIVAN WI
1100 AM CDT SUN JUL 23 2017

NOTE: "FAIR" INDICATES FEW OR NO CLOUDS BELOW 12,000 FEET WITH NO
SIGNIFICANT WEATHER AND/OR OBSTRUCTIONS TO VISIBILITY.

WIZ001-002-006>008-014>016-023>028-231700-
NORTHWEST WISCONSIN

CITY           SKY/WX    TMP DP  RH WIND       PRES   REMARKS
SUPERIOR ARPT  NOT AVBL
ASHLAND        CLOUDY    59  58  96 N10       29.93R FOG
HAYWARD        CLOUDY    63  56  78 N10       29.92R
SIREN          CLOUDY    62  56  82 N9        29.94R
CUMBERLAND     CLOUDY    61  55  82 N13       29.93R
RICE LAKE      CLOUDY    65  57  77 N6        29.93R
CHETEK         PTSUNNY   67  60  78 N7        29.90R
LADYSMITH      CLOUDY    66  57  74 NW8       29.91R
EAU CLAIRE     MOSUNNY   74  59  59 N9        29.87R
MENOMONIE      MOSUNNY   74  59  58 NW10G17   29.89R
NEW RICHMOND   PTSUNNY   71  58  64 NW9       29.91R
OSCEOLA        PTSUNNY   71  59  64 N12       29.94R
$$

WIZ003>005-009-010-017-018-231700-
NORTH CENTRAL WISCONSIN

CITY           SKY/WX    TMP DP  RH WIND       PRES   REMARKS
MANITOWISH WTR CLOUDY    59  59 100 NW9       29.90R
ARBOR VITAE    CLOUDY    62  59  91 NW6       29.88R
WOODRUFF       CLOUDY    62  59  91 NW6       29.88R
RHINELANDER    CLOUDY    68  61  78 N6        29.88R
EAGLE RIVER    CLOUDY    65  61  88 N5        29.87R
LAND O LAKES   CLOUDY    61  59  94 N9        29.90R
PHILLIPS       CLOUDY    61  59  94 N7        29.89R
TOMAHAWK         N/A     69  60  72 N8        29.87R
MEDFORD        MOSUNNY   71  59  64 N9G16     29.86R
MERRILL        SUNNY     73  62  69 N9        29.85R
$$

WIZ029-030-035-036-043>047-231700-
CENTRAL WISCONSIN

CITY           SKY/WX    TMP DP  RH WIND       PRES   REMARKS
WAUSAU         SUNNY     76  58  53 NW9       29.82R
MOSINEE        MOSUNNY   77  61  57 NW5       29.84S
MARSHFIELD     PTSUNNY   76  60  57 NW10      29.84R
STEVENS POINT  SUNNY     74  62  64 W8        29.83S
WAUPACA        PTSUNNY   79  61  52 W7        29.81R HX  80
WAUTOMA        CLOUDY    76  65  68 W8        29.83R
WISC RAPIDS    SUNNY     79  61  53 NW12      29.84S HX  80
CAMP DOUGLAS   PTSUNNY   77  64  65 W6        29.83S
$$

WIZ011>013-019>022-031-037>040-048>050-231700-
NORTHEAST WISCONSIN

CITY           SKY/WX    TMP DP  RH WIND       PRES   REMARKS
ANTIGO         MOSUNNY   74  62  65 NE9       29.84S
SHAWANO        PTSUNNY   78  66  67 NE6       29.80R HX  80
OCONTO         PTSUNNY   75  67  75 NW8       29.78S
STURGEON BAY     N/A     72  66  81 N8        29.79S
GREEN BAY      PTSUNNY   76  69  79 N8        29.80R
MANITOWOC      CLOUDY    76  66  71 NW9       29.80R
APPLETON       PTSUNNY   75  61  60 W6        29.79S
CLINTONVILLE   PTSUNNY   77  61  57 W7        29.80R
OSHKOSH        CLOUDY    77  64  64 W6        29.80R
$$

WIZ032>034-041-042-053>061-231700-
SOUTHWEST WISCONSIN

CITY           SKY/WX    TMP DP  RH WIND       PRES   REMARKS
LA CROSSE      PTSUNNY   78  68  71 NW9       29.84S HX  80
SPARTA         MOSUNNY   76  61  59 NW8       29.85S
VIROQUA        CLOUDY    77  61  56 N7        29.87R
BOSCOBEL       SUNNY     82  68  62 VRB3      29.82F HX  85
PRAIRIE DU CHI SUNNY     80  66  61 CALM      29.82S HX  82
PLATTEVILLE    MOSUNNY   80  75  85 W7        29.85S HX  84
$$

WIZ056-057-062-063-064-067-068-231700-
SOUTH CENTRAL WISCONSIN

CITY           SKY/WX    TMP DP  RH WIND       PRES   REMARKS
REEDSBURG      MOSUNNY   76  67  74 NW3       29.84S
BARABOO/DELLS  CLOUDY    75  64  68 W5        29.84S
LONE ROCK      CLOUDY    78  66  66 NW6       29.83R HX  80
MINERAL POINT  MOSUNNY   81  73  78 W10       29.85S HX  85
MADISON        CLOUDY    80  66  62 VRB6      29.82R HX  82
MIDDLETON      CLOUDY    76  68  78 NW5       29.84S
WATERTOWN      CLOUDY    76  71  84 CALM      29.82R
MONROE         MOSUNNY   81  64  57 SW10      29.84R HX  82
JANESVILLE     SUNNY     82  68  61 CALM      29.82S HX  85
$$

WIZ051-052-058>065-066-070>072-231700-
SOUTHEAST WISCONSIN

CITY           SKY/WX    TMP DP  RH WIND       PRES   REMARKS
MILWAUKEE      MOSUNNY   84  67  56 W12       29.80R HX  86
WAUKESHA       SUNNY     79  66  65 W10G16    29.83R HX  81
MILWAUKEE/TIMM MOSUNNY   81  63  54 NW8       29.81R HX  82
RACINE         PTSUNNY   81  72  74 W7        29.81S HX  85
KENOSHA        MOSUNNY   83  69  62 W10       29.81S HX  86
FOND DU LAC    CLOUDY    75  63  66 W6        29.82R
SHEBOYGAN      CLOUDY    78  68  71 NW12      29.79R HX  80
WEST BEND      PTSUNNY   79  63  57 NW9       29.82R HX  80
JUNEAU         PTSUNNY   75  68  78 CALM      29.84S
$$

LSZ147-162-231700-
LAKE SUPERIOR

STATION/POSITION TIME  TEMP    WIND        PRES    WAVE
                       AIR SEA DIR/SP/G            HT/PER
                 (UTC) (F)     (DEG/KT/KT) (MB)    (FT/S)
W MID LAKE BUOY  1550   51 47   20/ 10/ 14 1013.2R   2/ 5
DEVILS ISLAND    1600   57     360/  8/ 10 1013.9R
SAXON HARBOR     1540   57     350/  6/  9 1012.5R
$$

LMZ867-665-643>646-231700-
LAKE MICHIGAN

STATION/POSITION TIME  TEMP    WIND        PRES    WAVE
                       AIR SEA DIR/SP/G            HT/PER
                 (UTC) (F)     (DEG/KT/KT) (MB)    (FT/S)
CHAMBERS ISLAND  1540   71     330/  8/ 10 1008.1R
S GREEN BAY BUOY 1600   71 73   30/  2/  2 1008.7
N MID LAKE BUOY  1550   67 68  310/ 10/ 12 1008.4R   1
NORTHPORT PIER   1540   69     320/ 14/ 16 1008.1S
KEWAUNEE LAKESHO 1554   73     330/  6/  9 1008.0R
SHEBOYGAN LAKESH 1600   77     290/  9/ 12 1008.1R
PORT WASHINGTON  1530   83     290/  7/ 11 1009.5R
ATWATER BUOY     1509   78 69  300/  6/  8 1009.1R
MILWAUKEE LAKESH 1600   82     290/  9/ 13   N/A
S MID LAKE BUOY  1550   72 71  240/ 10/ 10 1008.8R   0
KENOSHA   LAKESH 1600   78     160/  1/  6 1009.1
$$

TC  - TEMPERATURE IN CELSIUS
VSB - VISIBILITY IN STATUTE MILES
WCI - WIND CHILL INDEX
HX  - HEAT INDEX




USA.gov is the U.S. government's official web portal to all federal, state and local government web resources and services.